�������l�o���
Date,Time,MP-1(��Sv/h),MP-2(��Sv/h),MP-3(��Sv/h),MP-4(��Sv/h),MP-5(��Sv/h),MP-6(��Sv/h),MP-7(��Sv/h),MP-8(��Sv/h),����,����(m/s),���J
2021/06/24,00:00,0.617,0.907,0.582,1.123,0.802,0.367,0.647,0.604,�k�k��,2.2,��
2021/06/24,00:10,0.619,0.908,0.582,1.126,0.801,0.369,0.646,0.605,�k�k��,2.6,��
2021/06/24,00:20,0.617,0.909,0.582,1.124,0.802,0.369,0.646,0.606,�k�k��,3.2,��
2021/06/24,00:30,0.616,0.910,0.582,1.127,0.801,0.367,0.646,0.605,�k,2.6,��
2021/06/24,00:40,0.617,0.909,0.580,1.126,0.800,0.368,0.647,0.605,�k�k��,2.6,��
2021/06/24,00:50,0.618,0.908,0.582,1.126,0.802,0.370,0.645,0.604,�k�k��,2.6,��
2021/06/24,01:00,0.616,0.908,0.581,1.125,0.804,0.369,0.645,0.604,�k�k��,2.6,��
2021/06/24,01:10,0.616,0.908,0.581,1.127,0.803,0.367,0.647,0.605,�k�k��,2.0,��
2021/06/24,01:20,0.617,0.907,0.581,1.125,0.803,0.369,0.645,0.605,�k�k��,2.9,��
2021/06/24,01:30,0.618,0.908,0.584,1.123,0.804,0.369,0.647,0.605,�k�k��,2.8,��
2021/06/24,01:40,0.619,0.910,0.582,1.128,0.802,0.369,0.646,0.604,�k,2.3,��
2021/06/24,01:50,0.620,0.909,0.583,1.125,0.804,0.369,0.647,0.604,�k�k��,2.3,��
2021/06/24,02:00,0.619,0.907,0.582,1.126,0.801,0.369,0.645,0.605,�k�k��,2.0,��
2021/06/24,02:10,0.617,0.908,0.582,1.129,0.802,0.368,0.646,0.604,�k�k��,2.3,��
2021/06/24,02:20,0.618,0.909,0.583,1.124,0.802,0.369,0.645,0.604,�k�k��,2.0,��
2021/06/24,02:30,0.616,0.909,0.584,1.126,0.802,0.370,0.646,0.603,�k�k��,2.5,��
2021/06/24,02:40,0.618,0.906,0.581,1.124,0.804,0.368,0.646,0.604,�k�k��,1.5,��
2021/06/24,02:50,0.618,0.906,0.581,1.126,0.803,0.368,0.645,0.605,�k�k��,1.9,��
2021/06/24,03:00,0.618,0.907,0.583,1.126,0.803,0.368,0.647,0.604,�k�k��,1.4,�L
2021/06/24,03:10,0.619,0.907,0.583,1.127,0.802,0.369,0.648,0.606,�k�k��,2.0,�L
2021/06/24,03:20,0.617,0.907,0.581,1.127,0.803,0.371,0.646,0.605,�k�k��,2.3,�L
2021/06/24,03:30,0.619,0.909,0.583,1.125,0.803,0.369,0.646,0.607,�k��,2.6,�L
2021/06/24,03:40,0.617,0.907,0.583,1.126,0.803,0.369,0.646,0.605,�k�k��,2.6,�L
2021/06/24,03:50,0.618,0.907,0.582,1.127,0.803,0.367,0.646,0.605,�k�k��,1.5,�L
2021/06/24,04:00,0.619,0.907,0.583,1.126,0.803,0.369,0.646,0.605,�k�k��,1.5,��
2021/06/24,04:10,0.617,0.905,0.582,1.128,0.802,0.369,0.645,0.604,�k�k��,1.7,��
2021/06/24,04:20,0.618,0.906,0.582,1.125,0.802,0.369,0.647,0.603,�k�k��,1.9,�L
2021/06/24,04:30,0.616,0.908,0.581,1.125,0.802,0.368,0.645,0.603,�k�k��,2.0,��
2021/06/24,04:40,0.616,0.909,0.581,1.125,0.802,0.369,0.646,0.605,�k�k��,1.4,��
2021/06/24,04:50,0.615,0.906,0.582,1.127,0.802,0.369,0.645,0.603,�k�k��,1.5,�L
2021/06/24,05:00,0.618,0.905,0.581,1.126,0.802,0.369,0.645,0.603,�k��,1.5,�L
2021/06/24,05:10,0.617,0.906,0.582,1.126,0.800,0.368,0.646,0.605,�k�k��,0.9,�L
2021/06/24,05:20,0.618,0.906,0.581,1.127,0.798,0.368,0.645,0.606,�k�k��,1.7,�L
2021/06/24,05:30,0.616,0.907,0.583,1.129,0.802,0.369,0.644,0.605,�k�k��,1.5,�L
2021/06/24,05:40,0.616,0.906,0.583,1.128,0.800,0.370,0.643,0.602,�k�k��,1.9,�L
2021/06/24,05:50,0.616,0.905,0.582,1.126,0.801,0.369,0.644,0.601,�k��,1.7,�L
2021/06/24,06:00,0.616,0.903,0.582,1.126,0.800,0.369,0.643,0.603,�k�k��,2.0,�L
2021/06/24,06:10,0.617,0.905,0.582,1.124,0.799,0.370,0.643,0.602,�k,2.0,�L
2021/06/24,06:20,0.617,0.904,0.581,1.124,0.801,0.368,0.644,0.603,�k,2.3,�L
2021/06/24,06:30,0.616,0.905,0.580,1.125,0.799,0.368,0.644,0.602,�k�k��,2.3,�L
2021/06/24,06:40,0.616,0.906,0.582,1.126,0.799,0.367,0.643,0.602,�k,1.9,�L
2021/06/24,06:50,0.617,0.907,0.580,1.122,0.797,0.369,0.642,0.603,�k,2.0,�L
2021/06/24,07:00,0.615,0.904,0.581,1.124,0.797,0.368,0.644,0.603,�k,1.2,��
2021/06/24,07:10,0.616,0.906,0.580,1.127,0.799,0.368,0.644,0.600,�k�k��,0.9,��
2021/06/24,07:20,0.616,0.906,0.581,1.125,0.799,0.369,0.643,0.601,�k��,1.2,��
2021/06/24,07:30,0.614,0.904,0.580,1.125,0.800,0.368,0.643,0.601,�k,0.9,��
2021/06/24,07:40,0.615,0.903,0.582,1.126,0.798,0.368,0.643,0.603,���k��,1.5,��
2021/06/24,07:50,0.613,0.901,0.581,1.124,0.799,0.366,0.642,0.602,�k��,1.4,��
2021/06/24,08:00,0.612,0.904,0.580,1.126,0.797,0.367,0.643,0.602,���k��,1.5,�L
2021/06/24,08:10,0.613,0.901,0.579,1.125,0.797,0.366,0.642,0.600,��,1.2,�L
2021/06/24,08:20,0.612,0.898,0.578,1.124,0.797,0.366,0.643,0.601,��,1.7,�L
2021/06/24,08:30,0.612,0.900,0.577,1.123,0.796,0.366,0.644,0.601,��,1.5,�L
2021/06/24,08:40,0.614,0.900,0.579,1.124,0.798,0.366,0.644,0.600,��,1.9,��
2021/06/24,08:50,0.613,0.901,0.578,1.124,0.794,0.366,0.643,0.600,��,1.2,��
2021/06/24,09:00,0.613,0.901,0.580,1.122,0.795,0.366,0.643,0.600,��,1.5,��
2021/06/24,09:10,0.613,0.901,0.579,1.125,0.795,0.365,0.643,0.600,���k��,2.0,��
2021/06/24,09:20,0.615,0.901,0.580,1.125,0.798,0.365,0.643,0.600,���k��,1.5,��
2021/06/24,09:30,0.614,0.900,0.580,1.125,0.797,0.366,0.643,0.600,���k��,1.5,��
2021/06/24,09:40,0.616,0.902,0.580,1.126,0.798,0.366,0.644,0.599,�k��,2.0,��
2021/06/24,09:50,0.614,0.900,0.581,1.123,0.798,0.365,0.645,0.598,��,1.7,��
2021/06/24,10:00,0.616,0.904,0.580,1.126,0.797,0.365,0.644,0.601,��,2.5,��
2021/06/24,10:10,0.614,0.901,0.582,1.122,0.798,0.367,0.645,0.599,��,2.3,��
2021/06/24,10:20,0.616,0.902,0.580,1.123,0.799,0.367,0.645,0.602,���k��,2.0,��
2021/06/24,10:30,0.615,0.906,0.582,1.126,0.799,0.365,0.645,0.601,��,2.3,��
2021/06/24,10:40,0.615,0.905,0.580,1.126,0.800,0.367,0.645,0.601,���k��,2.0,��
2021/06/24,10:50,0.615,0.906,0.580,1.125,0.797,0.366,0.645,0.600,���k��,2.2,��
2021/06/24,11:00,0.616,0.905,0.582,1.123,0.799,0.367,0.644,0.601,�k��,2.0,��
2021/06/24,11:10,0.616,0.906,0.580,1.125,0.799,0.367,0.646,0.599,���k��,2.2,��
2021/06/24,11:20,0.617,0.907,0.583,1.124,0.800,0.367,0.646,0.600,���k��,2.5,�L
2021/06/24,11:30,0.616,0.907,0.582,1.125,0.799,0.367,0.647,0.602,��,2.0,��
2021/06/24,11:40,0.616,0.909,0.582,1.126,0.801,0.367,0.644,0.602,��,1.7,��
2021/06/24,11:50,0.616,0.908,0.582,1.124,0.800,0.368,0.643,0.601,���쓌,1.2,�L
2021/06/24,12:00,0.616,0.910,0.581,1.126,0.801,0.368,0.645,0.602,�쓌,1.2,�L
2021/06/24,12:10,0.619,0.910,0.582,1.129,0.800,0.368,0.644,0.600,��,1.2,�L
2021/06/24,12:20,0.617,0.907,0.583,1.125,0.799,0.368,0.645,0.600,���쓌,1.4,�L
2021/06/24,12:30,0.613,0.900,0.580,1.119,0.784,0.368,0.641,0.600,��쓌,3.1,�L
2021/06/24,12:40,0.607,0.891,0.576,1.104,0.777,0.367,0.642,0.598,��,1.7,�L
2021/06/24,12:50,0.605,0.886,0.577,1.099,0.781,0.368,0.639,0.598,�k��,0.9,�L
2021/06/24,13:00,0.609,0.888,0.577,1.100,0.785,0.368,0.640,0.598,���k��,0.6,�L
2021/06/24,13:10,0.609,0.891,0.578,1.103,0.788,0.368,0.641,0.599,��,0.6,�L
2021/06/24,13:20,0.610,0.890,0.577,1.105,0.784,0.368,0.640,0.600,�k��,1.5,�L
2021/06/24,13:30,0.611,0.891,0.577,1.102,0.785,0.368,0.641,0.599,���k��,0.9,��
2021/06/24,13:40,0.610,0.892,0.577,1.105,0.784,0.368,0.641,0.599,��,0.6,��
2021/06/24,13:50,0.606,0.892,0.577,1.103,0.784,0.366,0.640,0.602,��,1.9,��
2021/06/24,14:00,0.608,0.890,0.575,1.104,0.784,0.366,0.641,0.599,�쓌,1.4,��
2021/06/24,14:10,0.609,0.889,0.574,1.102,0.783,0.365,0.641,0.599,���쓌,1.4,��
2021/06/24,14:20,0.608,0.890,0.575,1.102,0.782,0.365,0.642,0.599,���쓌,1.2,��
2021/06/24,14:30,0.609,0.890,0.574,1.104,0.783,0.366,0.642,0.598,�쓌,2.0,��
2021/06/24,14:40,0.608,0.893,0.574,1.101,0.784,0.365,0.642,0.599,��,1.2,��
2021/06/24,14:50,0.609,0.891,0.574,1.100,0.784,0.365,0.642,0.600,���k��,1.5,��
2021/06/24,15:00,0.609,0.891,0.574,1.101,0.784,0.365,0.642,0.599,���쓌,1.5,��
2021/06/24,15:10,0.609,0.892,0.573,1.098,0.783,0.363,0.642,0.601,���k��,1.5,��
2021/06/24,15:20,0.609,0.893,0.573,1.099,0.784,0.365,0.641,0.599,���k��,1.7,��
2021/06/24,15:30,0.607,0.895,0.573,1.099,0.785,0.365,0.642,0.601,�k�k��,0.9,��
2021/06/24,15:40,0.608,0.894,0.572,1.101,0.782,0.364,0.642,0.599,���쓌,0.9,��
2021/06/24,15:50,0.609,0.895,0.573,1.101,0.785,0.364,0.642,0.600,���k��,1.7,��
2021/06/24,16:00,0.609,0.894,0.575,1.100,0.784,0.363,0.643,0.598,��,1.4,��
2021/06/24,16:10,0.609,0.894,0.575,1.100,0.784,0.363,0.641,0.600,�쓌,1.7,��
2021/06/24,16:20,0.609,0.895,0.574,1.101,0.782,0.363,0.641,0.598,�쓌,1.9,�L
2021/06/24,16:30,0.608,0.893,0.574,1.103,0.785,0.364,0.641,0.599,���쓌,2.0,��
2021/06/24,16:40,0.610,0.895,0.575,1.105,0.784,0.367,0.642,0.601,�쓌,1.5,��
2021/06/24,16:50,0.610,0.897,0.574,1.104,0.783,0.364,0.642,0.600,���쓌,1.4,��
2021/06/24,17:00,0.609,0.894,0.576,1.104,0.785,0.364,0.640,0.599,���쓌,2.2,��
2021/06/24,17:10,0.609,0.895,0.576,1.104,0.784,0.363,0.641,0.600,��,1.7,�L
2021/06/24,17:20,0.611,0.895,0.578,1.105,0.787,0.365,0.642,0.599,��쓌,2.2,�L
2021/06/24,17:30,0.612,0.896,0.575,1.102,0.785,0.364,0.642,0.601,��,1.5,��
2021/06/24,17:40,0.613,0.895,0.577,1.106,0.785,0.365,0.641,0.598,��쐼,1.1,�L
2021/06/24,17:50,0.610,0.900,0.577,1.105,0.785,0.365,0.644,0.600,��,1.2,�L
2021/06/24,18:00,0.611,0.896,0.579,1.106,0.788,0.365,0.642,0.600,�쓌,1.5,�L
2021/06/24,18:10,0.613,0.899,0.578,1.108,0.788,0.366,0.643,0.601,��쓌,1.7,�L
2021/06/24,18:20,0.613,0.898,0.580,1.108,0.786,0.366,0.643,0.601,��쓌,2.0,�L
2021/06/24,18:30,0.612,0.898,0.578,1.103,0.785,0.368,0.643,0.601,��쓌,2.0,�L
2021/06/24,18:40,0.613,0.896,0.579,1.107,0.785,0.368,0.641,0.601,��쓌,4.2,�L
2021/06/24,18:50,0.615,0.895,0.581,1.108,0.784,0.369,0.640,0.599,��쓌,2.3,�L
2021/06/24,19:00,0.613,0.896,0.581,1.108,0.781,0.369,0.641,0.598,�쓌,1.4,�L
2021/06/24,19:10,0.614,0.896,0.579,1.105,0.783,0.369,0.641,0.598,��쓌,1.5,�L
2021/06/24,19:20,0.615,0.894,0.579,1.105,0.785,0.370,0.641,0.596,��쐼,1.2,�L
2021/06/24,19:30,0.614,0.897,0.581,1.105,0.783,0.371,0.640,0.597,��쐼,1.9,�L
2021/06/24,19:40,0.615,0.898,0.579,1.104,0.782,0.368,0.640,0.598,��쐼,2.2,�L
2021/06/24,19:50,0.612,0.897,0.580,1.104,0.783,0.370,0.639,0.598,��쐼,2.9,��
2021/06/24,20:00,0.613,0.896,0.579,1.103,0.784,0.367,0.638,0.598,�쐼,2.6,�L
2021/06/24,20:10,0.612,0.894,0.578,1.104,0.783,0.369,0.640,0.599,��쐼,2.5,�L
2021/06/24,20:20,0.613,0.897,0.578,1.105,0.784,0.369,0.640,0.599,��쐼,2.3,�L
2021/06/24,20:30,0.614,0.896,0.580,1.104,0.784,0.368,0.639,0.601,��쐼,2.2,�L
2021/06/24,20:40,0.612,0.896,0.576,1.105,0.783,0.368,0.638,0.599,��,1.7,��
2021/06/24,20:50,0.610,0.893,0.576,1.103,0.783,0.368,0.639,0.599,��,1.5,��
2021/06/24,21:00,0.611,0.894,0.575,1.102,0.783,0.367,0.637,0.599,��,1.5,��
2021/06/24,21:10,0.610,0.896,0.576,1.101,0.782,0.366,0.638,0.599,��쓌,1.5,��
2021/06/24,21:20,0.609,0.893,0.575,1.100,0.781,0.368,0.637,0.600,��,1.5,��
2021/06/24,21:30,0.609,0.892,0.575,1.100,0.780,0.367,0.637,0.598,��쐼,1.5,��
2021/06/24,21:40,0.608,0.892,0.574,1.100,0.782,0.367,0.638,0.599,�쐼,1.4,��
2021/06/24,21:50,0.606,0.895,0.575,1.101,0.780,0.364,0.639,0.597,��쐼,1.1,��
2021/06/24,22:00,0.609,0.892,0.575,1.101,0.781,0.367,0.639,0.598,�쐼,0.8,��
2021/06/24,22:10,0.609,0.892,0.573,1.100,0.782,0.365,0.639,0.597,��쐼,0.9,��
2021/06/24,22:20,0.608,0.892,0.573,1.100,0.782,0.366,0.639,0.598,��,0.8,��
2021/06/24,22:30,0.609,0.894,0.574,1.100,0.780,0.365,0.637,0.598,��,0.9,��
2021/06/24,22:40,0.609,0.891,0.576,1.100,0.781,0.364,0.640,0.598,�쐼,0.9,��
2021/06/24,22:50,0.608,0.892,0.573,1.101,0.782,0.364,0.641,0.599,��쐼,1.9,��
2021/06/24,23:00,0.607,0.892,0.573,1.098,0.782,0.365,0.639,0.598,�쐼,1.5,��
2021/06/24,23:10,0.607,0.892,0.574,1.101,0.782,0.366,0.639,0.599,���쐼,1.5,��
2021/06/24,23:20,0.607,0.892,0.573,1.102,0.782,0.367,0.640,0.599,���쐼,1.5,��
2021/06/24,23:30,0.609,0.894,0.575,1.098,0.781,0.365,0.640,0.597,���쐼,1.2,��
2021/06/24,23:40,0.609,0.892,0.576,1.101,0.782,0.366,0.640,0.598,�쐼,0.9,��
2021/06/24,23:50,0.607,0.893,0.574,1.099,0.782,0.365,0.640,0.600,��쐼,1.2,��
